TimeMST,TemperatureF,Dew PointF,Humidity,Sea Level PressureIn,VisibilityMPH,Wind Direction,Wind SpeedMPH,Gust SpeedMPH,PrecipitationIn,Events,Conditions,WindDirDegrees,DateUTC
12:53 AM,1.9,-0.0,91,30.18,10.0,SE,4.6,-,N/A,,Clear,130,2013-01-07 07:53:00
1:53 AM,3.9,1.0,88,30.17,8.0,Calm,Calm,-,N/A,,Clear,0,2013-01-07 08:53:00
2:53 AM,3.9,1.0,88,30.19,9.0,West,3.5,-,N/A,,Clear,260,2013-01-07 09:53:00
3:53 AM,3.0,-0.0,87,30.18,9.0,NW,5.8,-,N/A,,Clear,310,2013-01-07 10:53:00
4:53 AM,1.9,-0.9,88,30.18,10.0,Calm,Calm,-,N/A,,Clear,0,2013-01-07 11:53:00
5:53 AM,3.0,-0.9,84,30.21,10.0,Calm,Calm,-,N/A,,Clear,0,2013-01-07 12:53:00
6:53 AM,3.0,-0.0,87,30.19,10.0,Calm,Calm,-,N/A,,Clear,0,2013-01-07 13:53:00
7:53 AM,1.9,-2.0,83,30.20,10.0,Calm,Calm,-,N/A,,Partly Cloudy,0,2013-01-07 14:53:00
8:53 AM,3.0,-0.0,87,30.20,6.0,SE,4.6,-,N/A,,Clear,130,2013-01-07 15:53:00
9:53 AM,10.0,6.1,84,30.19,9.0,Calm,Calm,-,N/A,,Clear,0,2013-01-07 16:53:00
10:53 AM,14.0,7.0,74,30.17,10.0,Calm,Calm,-,N/A,,Clear,0,2013-01-07 17:53:00
11:53 AM,17.1,9.0,71,30.13,10.0,South,3.5,-,N/A,,Clear,180,2013-01-07 18:53:00
12:53 PM,21.9,10.9,63,30.07,10.0,Calm,Calm,-,N/A,,Clear,0,2013-01-07 19:53:00
1:53 PM,24.1,12.0,60,30.03,10.0,West,3.5,-,N/A,,Clear,260,2013-01-07 20:53:00
2:53 PM,26.1,12.9,58,29.99,10.0,Calm,Calm,-,N/A,,Clear,0,2013-01-07 21:53:00
3:53 PM,21.9,12.9,68,29.99,10.0,NW,5.8,-,N/A,,Clear,310,2013-01-07 22:53:00
4:53 PM,19.0,10.9,71,29.98,10.0,WNW,4.6,-,N/A,,Clear,290,2013-01-07 23:53:00
5:53 PM,17.1,10.9,77,29.98,10.0,Calm,Calm,-,N/A,,Clear,0,2013-01-08 00:53:00
6:53 PM,17.1,10.9,77,29.97,10.0,SE,3.5,-,N/A,,Mostly Cloudy,140,2013-01-08 01:53:00
7:53 PM,19.9,12.9,74,29.95,10.0,SSE,5.8,-,N/A,,Partly Cloudy,160,2013-01-08 02:53:00
8:53 PM,17.1,12.0,81,29.96,10.0,Calm,Calm,-,N/A,,Mostly Cloudy,0,2013-01-08 03:53:00
9:53 PM,17.1,12.0,81,29.93,10.0,SE,3.5,-,N/A,,Mostly Cloudy,140,2013-01-08 04:53:00
10:53 PM,16.0,10.9,81,29.93,10.0,SSE,5.8,-,N/A,,Clear,160,2013-01-08 05:53:00
11:53 PM,17.1,12.0,81,29.94,10.0,SE,3.5,-,N/A,,Clear,140,2013-01-08 06:53:00